International Skating Union - Official Site

Essent ISU World Cup Heerenveen
March 12-14, 2010

Draw | Lap Times | Index | World Cup

Referee: Knut  LUDAHL  (NOR)
Starter: Jannie  SMEGEN  (NED)
StartTime: EndTime: Air Temp: Ice Temp: Humidity:
15:42 15:52
Result Team Pursuit Ladies
Rankings as of Mar 14 2010 4:29PM
Rank: No.: Team: Nation: Time: Behind: Points:
Total 4
1 2 Canada (1) Kristina GROVES (2) Cindy KLASSEN (5) Brittany SCHUSSLER CAN CAN 3:02.050.5 - 19.26 - (19.2)
1.0 - 33.51 - (14.2)
1.5 - 47.83 - (14.3)
2.0 - 1:02.18 - (14.3)
2.5 - 1:16.71 - (14.5)
3.0 - 1:31.04 - (14.3)
3.5 - 1:45.72 - (14.6)
4.0 - 2:00.81 - (15.0)
4.5 - 2:15.85 - (15.0)
5.0 - 2:31.03 - (15.1)
5.5 - 2:46.47 - (15.4)
6.0 - 3:02.05 - (15.5)
150
2 5 Germany (12) Stephanie BECKERT (13) Anni FRIESINGER-POSTMA (15) Katrin MATTSCHERODT GER GER 3:03.430.5 - 19.78 - (19.7)
1.0 - 34.39 - (14.6)
1.5 - 48.57 - (14.1)
2.0 - 1:03.05 - (14.4)
2.5 - 1:17.78 - (14.7)
3.0 - 1:32.74 - (14.9)
3.5 - 1:48.14 - (15.4)
4.0 - 2:03.20 - (15.0)
4.5 - 2:18.28 - (15.0)
5.0 - 2:33.39 - (15.1)
5.5 - 2:48.37 - (14.9)
6.0 - 3:03.43 - (15.0)
1.38 120
3 7 Japan (17) Masako HOZUMI (19) Nao KODAIRA (23) Maki TABATA JPN JPN 3:04.580.5 - 19.70 - (19.7)
1.0 - 34.29 - (14.5)
1.5 - 48.53 - (14.2)
2.0 - 1:03.10 - (14.5)
2.5 - 1:17.93 - (14.8)
3.0 - 1:33.06 - (15.1)
3.5 - 1:47.92 - (14.8)
4.0 - 2:03.11 - (15.1)
4.5 - 2:18.28 - (15.1)
5.0 - 2:33.65 - (15.3)
5.5 - 2:49.31 - (15.6)
6.0 - 3:04.58 - (15.2)
2.53 105
4 14 Russia (37) Olga FATKULINA (39) Yekaterina LOBYSHEVA (43) Yekaterina SHIKHOVA RUS RUS 3:04.690.5 - 19.25 - (19.2)
1.0 - 33.93 - (14.6)
1.5 - 48.74 - (14.8)
2.0 - 1:03.11 - (14.3)
2.5 - 1:17.66 - (14.5)
3.0 - 1:32.39 - (14.7)
3.5 - 1:47.51 - (15.1)
4.0 - 2:02.59 - (15.0)
4.5 - 2:17.96 - (15.3)
5.0 - 2:33.24 - (15.2)
5.5 - 2:49.06 - (15.8)
6.0 - 3:04.69 - (15.6)
2.64 90